SBMOSBJP

Guest
Details From SBMO - Zumbi Dos Palmares
To SBJP - Presidente Castro Pinto
Flight Number -
Tags generated
Created
Modified
Stats Distance 151 nm / 280 km
Max Altitude 15,900 ft / 4,846 m
Waypoints 3
Social Downloads 3
Likes 0
Share VATSIM

Download

Looking for another format? Having issues loading an existing format? Contact us
Advertisement - Login to hide

Notes

Basic altitude profile: - Ascent Rate: 2500ft/min - Ascent Speed: 250kts - Cruise Altitude: 35000ft - Cruise Speed: 420kts - Descent Rate: 1500ft/min - Descent Speed: 250kts Options: - Use NATs: yes - Use PACOTS: yes - Use low airways: yes - Use high airways: yes

Route

SBMO POTRO SBJP

ID Type Via Altitude Latitude Longitude Leg Dist Tot Dist Heading (true) Name
O SBMO APT - 0 ft / 0 m -9.51081˚ -35.79168˚ - 0 nm - Zumbi Dos Palmares
POTRO FIX - 15,900 ft / 4,846 m -8.80833˚ -35.42917˚ 47 nm 47 nm 27° / 27° -
O SBJP APT - 0 ft / 0 m -7.14838˚ -34.95068˚ 103 nm 151 nm 16° / 16° Presidente Castro Pinto

Altitude Profile

Advertisement - Login to hide

SBMO

Details ICAO SBMO (MCZ)
Name Zumbi Dos Palmares
Region Brazil
Timezone America/Maceio (UTC-3.0)
Stats Elevation 387 ft / 118 m (AMSL)
Location -9.510808° -35.791677°
Runways 1
Magnetic Variation 22.605° W

METAR

SBMO 221600Z 14013KT 9999 SCT025 25/20 Q1017

Decode

TAF

TAF SBMO 221000Z 2212/2312 13010KT 9000 SCT015 TX27/2215Z TN21/2307Z PROB40 TEMPO 2212/2215 6000 SHRA FEW010 BKN015 BECMG 2220/2221 12005KT SCT020 RMK PEA

Decode

Departure Runways

ID Width Length Bearing (true) Bearing (mag) Surface Threshold Offset Overrun Length
12 148 ft / 45 m 8,528 ft / 2,599 m 100.73° 123.34° Asphalt 0 ft / 0 m 210 ft / 64 m
30 148 ft / 45 m 8,528 ft / 2,599 m 280.73° 303.34° Asphalt 0 ft / 0 m 210 ft / 64 m

SBJP

Details ICAO SBJP (JPA)
Name Presidente Castro Pinto
Region Brazil
Timezone America/Fortaleza (UTC-3.0)
Stats Elevation 215 ft / 66 m (AMSL)
Location -7.148382° -34.950680°
Runways 1
Magnetic Variation 21.779° W

METAR

SBJP 221600Z 16014KT 9999 3000S -RA BKN022 27/22 Q1015

Decode

TAF

TAF SBJP 221000Z 2212/2312 14012KT 9000 SCT020 TX28/2216Z TN21/2306Z PROB30 TEMPO 2212/2215 6000 SHRA BKN015 BECMG 2216/2217 SCT020 BECMG 2221/2222 17007KT BECMG 2303/2304 19005KT RMK PEA

Decode

Destination Runways

ID Width Length Bearing (true) Bearing (mag) Surface Threshold Offset Overrun Length
16 148 ft / 45 m 8,282 ft / 2,524 m 135.67° 157.45° Asphalt 0 ft / 0 m 0 ft / 0 m
34 148 ft / 45 m 8,282 ft / 2,524 m 315.67° 337.45° Asphalt 0 ft / 0 m 200 ft / 61 m

Popular Alternatives